Back to catalog

STARLINK-30931

AliveCommunicationsVLEO
NORAD 58413·PAYLOAD·🇺🇸 United States

Launched Nov 22, 2023 from Cape Canaveral Space Force Station

Loading…

Next Passes (next 24 hours)

TLE

FreshSource: CelesTrak SupGP

Epoch: Sep 14, 2026, 22:25 UTC

1 58413C 23180M   26257.93451389  .00056425  00000+0  20440-2 0  2579
2 58413  43.0044  52.5394 0001741 276.4216 305.3430 15.27544395    11

Track STARLINK-30931 in real time with AllMySat

Download on the App Store